Regional Weather Roundup
Issued by NWS Portland, ME

Home | Current Version | Previous Version | Text Only | Print | Product List | Glossary On
Versions: 1 2 3 4 5 6 7 8 9 10 11 12 13 14 15 16 17 18 19 20 21 22 23 24 25 26 27 28 29 30 31 32 33 34 35 36 37 38 39 40 41 42 43 44 45 46 47 48 49 50
000
ASUS41 KGYX 261010
RWRGYX
WEATHER ROUNDUP FOR MAINE AND NEW HAMPSHIRE
NATIONAL WEATHER SERVICE GRAY ME
500 AM EST FRI DEC 26 2014

MEZ002-005-006-010-012-015-018-020-021-024-026-027-029-261100-
MAINE

CITY           SKY/WX    TMP DP  RH WIND       PRES   REMARKS
PORTLAND       CLEAR     41  26  55 SW7       29.96R
SANFORD        CLEAR     37  21  52 W3        29.99R
BAR HARBOR     CLEAR     37  28  70 SW7       29.87R
WISCASSET      CLEAR     35  27  72 W3        29.95R
ROCKLAND       CLEAR     39  27  60 SW9       29.91R
FRYEBURG       PTCLDY    42  23  46 VRB7G17   29.95R
LEWISTONAUBURN CLEAR     36  23  60 SW8       29.92R
AUGUSTA        PTCLDY    40  23  50 W10       29.90R
WATERVILLE     PTCLDY    39  23  52 W5        29.85R
BANGOR         MOCLDY    38  24  57 SW7       29.86R
GREENVILLE       N/A     36  22  56 NW12G31   29.72R
MILLINOCKET    CLEAR     41  24  51 W23G40    29.76R
HOULTON        CLOUDY    39  24  55 W18G32    29.70R
PRESQUE ISLE   CLOUDY    39  19  45 W18G39    29.64R
FRENCHVILLE    CLOUDY    32  22  66 W21G38    29.57R WCI  20
CARIBOU        CLOUDY    37  22  54 W25G49    29.59S
$$

NHZ002-005-008-009-011-012-014-261100-
NEW HAMPSHIRE

CITY           SKY/WX    TMP DP  RH WIND       PRES   REMARKS
PORTSMOUTH     PTCLDY    40  27  60 SW7       30.00R
ROCHESTER      CLEAR     40  26  57 VRB5      29.99R
NASHUA         PTCLDY    34  30  85 CALM      30.04R
MANCHESTER     PTCLDY    41  28  60 W8        30.01S
CONCORD        PTCLDY    40  27  59 W13       30.01R
LACONIA        MOCLDY    39  25  56 W13G18    29.97
PLYMOUTH       FAIR      39  32  73 W8G18     29.98R
BERLIN         CLOUDY    38  24  57 NW8       29.92R
WHITEFIELD     CLOUDY    39  24  55 W8        29.98R
JAFFREY        CLOUDY    38  28  67 CALM      30.02R
KEENE          CLOUDY    41  28  60 SW5       30.05R
LEBANON        CLOUDY    40  28  62 W6        30.03R
MT WASHINGTON  FOG       14  14 100 NW87G96     N/A  VSB 1/16WCI -16
$$

VTZ005-007-008-261100-
VERMONT

CITY           SKY/WX    TMP DP  RH WIND       PRES   REMARKS
ST JOHNSBURY     N/A     39  26  59 MISG      29.99R
MONTPELIER     CLOUDY    37  25  61 W12G17    30.04R
BURLINGTON     CLOUDY    42  27  55 W6        30.05R
$$

MAZ007-012-024-CTZ003-RIZ002-NYZ038-NYZ072-261100-
SOUTHERN NEW ENGLAND AND NY

CITY           SKY/WX    TMP DP  RH WIND       PRES   REMARKS
BOSTON         CLEAR     41  29  62 SW9       30.06R
WORCESTER      CLEAR     36  28  73 W9        30.04R
NANTUCKET      CLEAR     42  32  67 W10       30.10R
PROVIDENCE     CLEAR     36  29  75 SW6       30.11R
HARTFORD       MOCLDY    41  28  60 NW5       30.09S
ALBANY         CLOUDY    42  27  55 W14       30.14R
NEW YORK CITY  CLEAR     42  29  59 W9        30.16R
$$

ANZ081-ANZ082-ANZ150-NHZ014-MEZ023>029-261100-
COASTAL MARINE OBSERVATIONS

STATION/POSITION TIME  TEMP    WIND        PRES    WAVE
                       AIR SEA DIR/SP/G            HT/PER
                 (UTC) (F)     (DEG/KT/KT) (MB)    (FT/S)
MOUNT DESERT ROC 1000   45                 1011.9R
MATINICUS ROCK   1000          260/ 22/ 24 1013.2R
PORTLAND WX BUOY 0950   43 44  250/ 16/ 19 1014.1R   3/10
WELLS            0900   40 40  270/  4/  7 1014.2R
ISLE OF SHOALS   1000   40     240/ 14/ 15 1015.7R
JEFFREYS LEDGE   0921      49                N/A     4/ 4
CASHES LEDGE BUO 0950   45     270/ 25     1013.9R
$$

.............KEY..............
   WCI - WIND CHILL
   TC  - TEMPERATURE IN CELSIUS
   VSB - VISIBILITY IN MILES
   HX  - HEAT INDEX
   FAIR- INDICATES FEW OR NO CLOUDS BELOW 12,000 FT, WITH NO
         SIGNIFICANT WEATHER AND/OR OBSTRUCTIONS TO VISIBILITY.




USA.gov is the U.S. government's official web portal to all federal, state and local government web resources and services.